Talkeetna, AK

2:28 PM AKDT on March 28, 2017 (GMT -0800)
Talkeetna

Weather History for PATK - December, 2012

Change the Weather History Date:

Thursday, December 6, 2012

  Actual Average Record
Temperature  
Mean Temperature -2 °F -  
Max Temperature 6 °F 21 °F 42 °F (2002)
Min Temperature -9 °F 4 °F -32 °F (1962)
Degree Days  
Heating Degree Days 66    
Moisture  
Dew Point -12 °F    
Average Humidity 58    
Maximum Humidity 79    
Minimum Humidity 34    
Precipitation  
Precipitation 0.00 in - - ()
Sea Level Pressure  
Sea Level Pressure 29.78 in    
Wind  
Wind Speed 6 mph (NNE)    
Max Wind Speed 14 mph    
Max Gust Speed 20 mph    
Visibility 10 miles    
Events      
Averages and records for this station are not official NWS values.
T = Trace of Precipitation, MM = Missing Value Source: NWS Daily Summary

Daily Weather History Graph

Daily Weather History Graph

Search for Another Location

Airport or City:

Trip Planner

Search our weather history database for the weather conditions in past years. The results will help you decide how hot, cold, wet, or windy it might be!

Date:

Astronomy

Dec. 06, 2012 Rise Set
Actual Time 10:09 AM AKST 3:33 PM AKST
Civil Twilight 9:05 AM AKST 4:38 PM AKST
Nautical Twilight 8:03 AM AKST 5:39 PM AKST
Astronomical Twilight 7:08 AM AKST 6:34 PM AKST
Moon 12:24 AM AKST (12/6) 1:06 PM AKST (12/6)
Length of Visible Light 7h 33m
Length of Day
5h 24m
Waning Gibbous, 48% of the Moon is Illuminated
Dec 6
Waning Gibbous
Dec 12
New
Dec 19
First Quarter
Dec 28
Full
Jan 4
Last Quarter

Hourly Weather History & Observations

Time (AKST) Temp. Windchill Dew Point Humidity Pressure Visibility Wind Dir Wind Speed Gust Speed Precip Events Conditions
12:53 AM 5.0 °F -12.3 °F -14.1 °F 41% 29.66 in 10.0 mi NNE 13.8 mph 19.6 mph N/A   Clear
1:53 AM 5.0 °F -11.6 °F -14.1 °F 41% 29.66 in 10.0 mi NNE 12.7 mph 18.4 mph N/A   Clear
3:53 AM 5.0 °F -9.1 °F -14.1 °F 41% 29.67 in 10.0 mi NNE 9.2 mph - N/A   Clear
4:53 AM 5.0 °F -9.1 °F -13.0 °F 43% 29.67 in 10.0 mi NNE 9.2 mph - N/A   Clear
5:53 AM 5.0 °F -5.6 °F -13.0 °F 43% 29.68 in 10.0 mi North 5.8 mph - N/A   Clear
6:53 AM 3.9 °F -6.9 °F -13.0 °F 46% 29.68 in 10.0 mi North 5.8 mph - N/A   Clear
7:53 AM -0.0 °F -7.9 °F -11.0 °F 60% 29.70 in 10.0 mi North 3.5 mph - N/A   Clear
8:53 AM -2.0 °F -12.2 °F -11.0 °F 66% 29.72 in 10.0 mi NNW 4.6 mph - N/A   Mostly Cloudy
9:53 AM -2.0 °F - -11.0 °F 66% 29.73 in 10.0 mi Calm Calm - N/A   Mostly Cloudy
10:53 AM -0.0 °F -7.9 °F -11.0 °F 60% 29.75 in 10.0 mi North 3.5 mph - N/A   Mostly Cloudy
11:53 AM 1.0 °F - -11.0 °F 57% 29.77 in 10.0 mi Calm Calm - N/A   Overcast
12:53 PM 1.0 °F - -9.9 °F 60% 29.79 in 10.0 mi Calm Calm - N/A   Overcast
1:53 PM 3.0 °F - -9.9 °F 55% 29.81 in 10.0 mi Calm Calm - N/A   Overcast
2:53 PM 6.1 °F -0.9 °F -9.0 °F 50% 29.81 in 10.0 mi Variable 3.5 mph - N/A   Overcast
3:53 PM 3.9 °F - -9.0 °F 55% 29.81 in 10.0 mi Calm Calm - N/A   Mostly Cloudy
4:53 PM 1.0 °F - -9.9 °F 60% 29.83 in 10.0 mi Calm Calm - N/A   Clear
5:53 PM -2.9 °F - -11.0 °F 68% 29.85 in 10.0 mi Calm Calm - N/A   Clear
6:53 PM -7.1 °F -15.9 °F -11.9 °F 79% 29.86 in 10.0 mi ENE 3.5 mph - N/A   Clear
7:53 PM -6.0 °F - -11.9 °F 75% 29.88 in 10.0 mi Calm Calm - N/A   Clear
8:53 PM -8.0 °F -16.9 °F -13.0 °F 79% 29.89 in 10.0 mi East 3.5 mph - N/A   Clear
9:53 PM -9.0 °F -18.2 °F -14.1 °F 79% 29.90 in 10.0 mi East 3.5 mph - N/A   Clear
10:53 PM -9.0 °F - -15.0 °F 75% 29.91 in 10.0 mi Calm Calm - N/A   Clear
11:53 PM -9.9 °F -19.2 °F -15.0 °F 78% 29.92 in 10.0 mi ENE 3.5 mph - N/A   Clear